Probability
0 1 2 3 4 4 3 4 4 3 2 1 0 0 0 0 0 0 0 0 0 0 0 0 0 0 0 0 0 0 0 0 0 0 0 0 0 0 0 0 0 0 0
0 0 1 3 4 4 4 4 3 2 1 0 0 0 0 1 1 0 0 0 0 0 0 0 0 0 0 0 0 0 0 0 0 0 0 0 0 0 0 0 0 0 0
0 0 1 2 3 3 2 2 2 1 0 0 0 0 1 2 2 1 0 0 0 0 0 0 0 0 0 0 0 0 0 0 0 0 0 0 0 0 0 0 0 0 0
0 0 0 1 1 1 0 0 0 0 0 0 0 0 1 2 2 1 0 0 0 0 0 0 0 0 0 0 0 0 0 0 0 0 0 0 0 0 0 0 0 0 0
0 0 0 0 0 0 0 0 0 0 0 0 0 0 0 1 1 0 0 0 0 0 0 0 0 0 0 0 0 0 0 0 0 0 0 0 0 0 0 0 0 0 0
1 0 0 0 0 0 0 0 0 0 0 0 0 0 0 0 0 0 0 0 0 0 0 0 0 0 0 0 0 0 0 0 0 0 0 0 0 0 0 0 0 0 0
2 1 0 0 0 0 0 0 0 0 0 0 0 0 0 0 0 0 0 0 0 0 0 0 0 1 1 1 1 0 0 0 0 0 0 0 0 0 0 0 0 0 0
2 1 0 0 0 0 0 0 0 0 0 0 0 0 0 0 0 0 0 0 0 1 1 1 1 2 2 2 1 0 0 0 0 0 0 0 0 0 0 0 0 0 0
3 2 1 0 0 0 0 0 0 0 0 0 0 0 0 0 0 0 0 0 1 2 2 2 3 3 3 1 1 0 0 0 0 0 0 0 0 0 0 0 0 0 0
3 3 1 0 0 0 0 0 0 0 0 0 0 0 0 0 0 0 0 0 1 2 3 3 3 3 2 1 0 0 0 0 0 0 0 0 0 0 0 0 0 0 0
3 3 2 1 0 0 0 0 0 0 0 0 0 0 0 0 0 0 0 0 1 3 3 3 3 2 1 0 0 0 0 0 0 0 0 0 0 0 0 0 0 0 0
3 3 2 1 0 0 0 0 0 0 0 0 0 0 0 0 0 0 0 1 2 3 3 2 2 1 0 0 0 0 0 0 0 0 0 0 1 1 0 0 0 0 0
3 3 2 0 0 0 0 0 0 0 0 0 0 0 0 0 0 0 0 1 2 2 1 1 1 0 0 0 0 0 0 0 0 0 0 0 1 1 1 1 1 0 0
3 2 1 0 0 0 0 0 0 0 0 0 0 0 0 0 0 0 0 1 1 1 0 0 0 0 0 0 0 0 0 0 0 0 0 0 1 1 1 1 1 0 0
3 2 1 0 0 0 0 1 1 0 0 0 0 0 0 0 0 0 0 0 0 0 0 0 0 0 0 0 0 0 0 0 0 0 0 0 0 0 0 1 1 0 0
7 5 3 1 0 0 1 2 2 1 0 0 0 0 0 0 0 0 0 0 0 0 0 0 0 0 0 0 0 0 0 0 0 0 0 0 0 1 0 0 0 0 0
16 13 10 7 4 3 2 2 2 1 0 0 0 0 0 0 0 0 0 0 0 0 0 0 0 0 0 0 0 0 0 0 0 0 0 0 0 0 0 0 0 0 0
22 21 18 15 12 8 5 3 3 1 0 0 1 1 1 1 1 0 0 0 0 0 0 0 0 0 0 0 0 0 0 0 0 0 0 0 0 0 0 0 0 0 0
25 24 23 23 21 14 9 6 5 3 1 1 2 2 2 2 1 0 0 0 0 0 0 0 0 0 0 0 0 0 0 0 0 0 0 0 0 0 0 0 0 0 0
30 28 26 26 25 20 14 11 8 5 3 2 3 3 3 3 2 1 0 0 0 0 0 0 0 0 0 0 0 0 0 0 0 0 0 0 0 0 0 0 0 0 0
37 33 30 28 26 22 16 12 9 5 4 4 4 5 5 4 3 2 1 1 0 0 0 0 0 0 0 0 0 0 0 0 0 0 0 0 0 0 0 0 0 0 0
44 40 35 32 28 21 16 11 8 5 4 5 7 7 6 6 4 3 2 1 0 0 0 0 0 0 0 0 0 0 0 0 0 0 0 0 0 0 1 1 1 1 0
52 46 40 37 30 22 16 13 10 7 6 5 6 7 7 7 5 4 3 2 1 0 0 0 0 0 0 0 0 0 0 0 0 0 0 0 0 0 1 2 2 1 1
56 52 46 41 34 25 19 17 14 11 8 5 4 5 6 7 7 5 4 3 1 0 0 0 0 0 0 0 0 0 0 0 0 0 0 0 0 0 1 2 3 2 1
56 55 52 48 41 33 25 20 16 12 8 4 3 4 6 7 7 6 4 3 2 1 0 0 0 0 0 0 0 0 0 0 0 0 0 0 0 0 0 1 2 2 1
55 56 56 53 46 39 30 22 16 11 6 2 2 5 6 6 6 6 5 4 3 2 1 0 0 0 0 0 0 0 0 0 0 0 0 0 0 0 0 0 1 1 2
Wind_Speed
5 7 14 16 17 17 17 17 17 17 17 18 18 18 18 19 18 18 17 17 16 16 16 16 16 16 16 16 16 16 16 16 16 16 16 15 15 15 16 16 15 11 16
9 9 15 16 16 17 17 17 16 16 17 17 17 17 18 18 18 17 16 16 16 16 15 15 15 15 15 15 15 15 15 16 16 16 16 14 14 14 15 15 14 10 16
12 10 13 16 16 16 16 16 16 16 16 16 16 16 17 17 17 16 16 15 15 15 15 14 14 14 14 14 14 14 14 15 16 16 14 7 9 14 15 15 15 15 15
13 9 12 17 17 16 16 16 15 16 16 16 16 16 16 16 16 16 15 15 15 14 14 14 13 13 13 13 13 12 12 13 15 15 7 6 7 14 15 15 15 14 14
11 8 13 18 17 16 16 15 15 15 15 15 15 15 15 15 15 15 15 14 14 13 13 13 13 13 12 12 11 10 10 11 14 11 6 6 5 12 14 14 14 14 14
11 9 13 18 17 16 16 15 15 15 15 15 15 14 14 14 14 14 14 14 13 13 12 12 12 11 11 10 9 9 9 12 12 7 6 5 5 11 14 14 13 13 13
11 8 12 17 17 16 15 15 15 14 14 15 14 14 14 13 14 14 13 13 13 12 11 11 11 10 10 9 8 7 8 12 8 6 5 5 6 11 13 13 13 13 12
12 9 10 17 17 16 15 15 14 14 14 14 14 13 13 13 13 13 13 12 12 11 10 10 9 9 8 7 7 7 9 12 9 7 5 4 8 11 12 12 12 12 12
11 9 7 9 12 15 15 14 14 14 14 13 13 13 12 13 12 12 12 12 11 10 9 8 8 7 6 6 6 7 9 11 7 5 7 4 9 11 12 12 12 11 11
10 8 7 6 6 6 8 13 14 14 13 13 13 12 12 12 12 12 11 11 11 10 8 7 6 6 5 4 5 8 10 11 5 5 4 6 11 12 12 11 11 11 10
10 8 7 7 6 6 6 10 11 12 12 11 10 12 10 4 5 6 9 10 10 8 7 6 5 4 3 4 5 8 8 3 4 4 3 9 12 12 12 11 10 10 10
12 9 8 8 7 6 7 5 3 4 5 4 3 5 3 3 3 5 8 10 8 7 5 4 3 2 2 2 3 6 3 4 4 3 4 11 12 12 11 11 10 10 10
13 12 9 9 8 7 5 5 2 2 3 3 4 4 3 3 2 3 2 3 3 4 1 1 1 1 1 1 1 2 3 3 3 3 5 11 11 12 11 11 10 10 9
13 12 10 10 8 7 6 5 4 3 3 3 3 4 3 2 3 2 2 2 1 1 1 1 0 1 1 1 3 4 4 3 3 2 4 11 10 11 11 10 10 9 9
12 12 12 10 9 8 7 5 5 4 4 4 4 4 5 4 4 3 2 2 2 1 2 2 1 1 1 2 3 5 5 5 4 3 3 10 10 10 11 10 10 9 9
12 12 11 11 10 9 7 5 5 5 4 4 4 5 6 4 4 4 3 2 2 2 2 2 2 1 1 2 3 5 5 5 5 4 3 6 10 10 10 10 10 9 9
13 12 11 11 10 9 8 7 5 5 5 4 4 5 5 5 5 4 3 2 2 2 2 2 1 1 1 2 3 4 4 5 5 5 4 3 4 8 10 10 10 10 9
12 12 12 12 10 9 7 6 5 5 5 4 4 4 5 6 6 5 3 3 2 2 2 2 2 2 1 2 2 2 3 3 5 4 4 4 3 3 6 10 9 9 9
13 13 11 10 10 8 7 5 5 4 5 4 4 4 4 5 5 4 3 3 2 2 2 2 2 2 2 1 1 1 2 3 4 5 4 5 4 4 3 6 9 9 9
12 11 11 10 10 8 5 4 3 4 3 3 4 4 5 4 5 4 3 3 3 2 2 2 2 1 2 2 1 1 0 2 2 3 5 4 4 5 5 4 4 5 8
12 11 11 11 10 7 5 4 4 4 4 3 3 5 5 5 5 4 3 3 3 3 3 3 2 2 1 1 2 2 2 1 1 2 3 3 4 5 5 5 3 3 3
13 13 12 12 11 9 6 4 3 4 3 4 4 4 5 6 6 5 4 3 3 3 3 2 3 2 1 1 3 2 2 3 2 1 2 3 4 3 4 6 4 4 3
13 15 13 12 11 9 8 4 3 3 2 2 3 4 4 5 5 5 5 4 4 3 3 3 3 4 2 0 2 3 3 2 2 2 2 2 3 3 3 4 5 5 5
14 13 12 12 11 10 9 7 7 6 5 5 4 4 4 5 5 5 5 5 4 3 3 3 3 3 3 2 1 1 2 4 3 1 2 1 2 3 4 4 5 5 5
13 13 11 11 10 10 9 9 8 6 4 3 3 5 5 4 4 5 5 5 4 3 4 3 3 3 3 3 2 1 1 1 2 2 2 2 2 3 3 4 4 4 5
11 11 11 11 10 10 10 9 9 8 6 6 5 5 5 3 4 5 5 5 5 4 4 4 4 4 3 3 2 2 3 2 2 3 3 2 3 3 3 3 4 4 5
Wind_Direction
134 131 122 116 112 109 107 104 102 101 101 102 103 104 106 107 108 108 110 110 110 109 108 108 108 110 111 112 112 111 110 110 108 108 108 109 110 110 110 108 106 106 109
140 134 124 119 115 112 110 108 107 105 105 105 107 108 109 109 110 110 111 111 112 111 110 110 111 111 112 112 112 111 111 111 109 107 105 106 108 110 110 108 108 111 111
133 130 125 121 118 116 114 112 111 110 109 109 110 111 111 111 112 112 111 112 113 113 112 112 112 111 110 110 110 111 112 110 109 106 102 97 105 109 111 111 110 109 110
132 129 128 125 122 120 118 116 114 112 112 113 114 114 114 115 115 114 113 113 114 114 114 113 113 112 110 110 110 111 113 114 113 109 99 96 105 111 112 111 111 111 111
129 128 133 128 125 123 120 119 117 117 116 117 117 117 117 117 118 118 117 116 116 116 116 115 113 112 111 111 110 111 112 113 114 106 97 90 98 115 115 114 113 113 113
130 131 136 131 128 126 124 122 122 120 120 120 120 120 120 120 120 120 120 120 119 118 117 116 115 114 112 111 109 107 111 115 113 106 103 102 104 116 117 116 115 115 114
133 133 136 134 132 130 128 126 125 123 123 123 122 123 123 124 124 123 123 124 123 121 120 119 117 114 112 107 104 105 112 120 116 111 108 107 115 120 120 118 117 117 117
135 133 137 138 136 134 132 130 129 127 126 124 124 126 127 127 127 128 128 128 126 124 124 123 120 115 108 101 96 102 115 126 125 125 116 115 125 125 124 121 120 119 119
135 133 131 137 138 138 136 134 132 130 129 128 128 129 129 129 130 133 134 133 132 130 129 128 122 114 104 94 90 103 117 129 125 134 135 129 134 133 130 128 126 125 125
136 136 131 129 128 132 135 137 136 135 134 134 134 133 133 134 135 136 137 138 138 137 135 132 123 109 95 84 85 107 118 129 131 135 131 145 143 139 136 134 132 130 130
143 144 142 138 134 133 139 143 140 139 140 138 138 138 131 120 123 134 143 144 143 143 142 137 125 109 81 59 80 105 111 119 132 132 140 151 149 145 142 140 138 136 134
154 156 154 152 150 150 148 133 132 135 135 129 132 131 123 125 137 140 151 149 150 150 148 148 147 115 75 56 80 100 109 123 127 138 154 157 155 151 147 146 145 144 141
160 160 160 161 160 158 140 144 142 135 139 142 148 146 139 134 131 123 134 144 146 153 137 135 115 78 95 110 105 121 133 128 131 149 161 162 159 157 155 153 151 152 152
162 164 164 164 162 159 150 156 156 153 161 161 171 166 149 139 137 143 146 147 151 155 156 156 192 213 210 132 134 138 135 127 129 134 167 167 165 164 163 162 161 161 160
164 166 168 165 163 160 157 166 164 166 171 170 169 169 158 153 156 157 165 166 174 172 167 177 181 177 156 139 143 142 143 141 150 160 169 175 173 172 170 172 171 170 170
166 166 165 163 162 160 163 167 166 171 170 164 166 168 160 157 156 156 162 170 181 181 178 178 173 161 145 137 144 154 157 150 158 166 170 182 182 181 181 179 179 180 179
165 163 162 161 160 160 162 169 166 170 165 164 166 161 156 157 157 152 156 170 184 171 165 159 140 124 129 129 140 153 153 159 165 169 169 175 187 194 190 189 187 188 189
161 161 164 164 160 162 161 159 160 164 162 162 161 154 156 157 155 148 153 173 174 153 147 146 131 114 94 112 131 153 152 160 169 173 173 180 188 195 199 198 193 192 196
165 165 165 159 162 163 159 151 152 155 159 160 156 154 156 157 156 148 156 172 158 144 148 157 131 137 132 128 148 146 152 165 173 177 183 188 192 194 197 205 198 197 202
166 165 164 160 163 157 148 133 130 138 152 155 157 163 159 159 158 150 161 171 154 138 140 135 129 124 136 152 126 95 156 180 174 180 189 186 194 198 195 202 199 207 209
166 166 167 163 164 157 155 154 152 161 164 165 171 168 169 167 162 160 165 167 159 156 169 156 134 123 115 118 83 30 354 353 205 195 186 183 198 199 190 195 194 194 208
173 172 171 169 168 169 168 163 158 154 165 171 171 175 181 177 171 173 167 172 167 157 164 158 138 135 160 135 128 105 9 347 324 230 197 196 200 191 194 198 195 199 202
177 177 176 172 169 170 163 151 142 122 117 147 171 184 193 185 178 171 169 169 171 165 176 180 160 154 167 203 150 145 151 214 292 318 255 213 193 191 202 194 197 204 201
181 177 172 170 170 171 167 169 169 173 179 188 180 183 190 191 183 176 170 171 176 173 177 190 173 160 154 178 205 179 169 160 155 288 314 281 220 207 205 203 200 204 202
176 173 171 169 172 174 175 177 178 183 185 169 166 175 187 192 188 182 175 170 175 182 185 190 172 164 164 170 180 175 142 125 145 156 243 285 281 244 216 208 199 200 202
171 171 170 172 178 178 178 180 183 181 177 170 178 181 188 191 194 192 181 177 179 182 189 194 181 173 173 172 175 170 166 167 186 174 199 233 245 260 231 215 208 204 203